* Astronomy

Members Login
Post Info TOPIC: Comet P/2006 H1 (McNaught)


L

Posts: 131433
Date:
RE: Comet P/2006 H1 (McNaught)
Permalink  
 


Comet P/2006 H1 (McNaught) is at Opposition (3.943 AU) on the 6th April 2018



__________________


L

Posts: 131433
Date:
Permalink  
 

Orbital elements:
    C/2006 H1 (McNaught)
T 2006 Feb. 24.566 TT                                   MPC
q   2.15508              (2000.0)            P               Q
n   0.149642       Peri.  285.416       +0.217611       +0.975968
a   3.51371        Node   357.078       -0.786400       +0.168336
e   0.38667        Incl.   13.045       -0.578119       +0.138384
P   6.59
From 9 observations 2006 Apr. 29-May 1.

MPEC 2006 - J06

COMET P/2006 H1 (McNAUGHT)
R. H. McNaught reports his discovery on a comet on CCD images taken with the 0.5-m Uppsala Schmidt (discovery observation tabulated below) in the course of the Siding Spring Survey, the object having an asteroidal head with a very weak, diffuse tail 8" long in p.a. about 250 deg.

Source



__________________
Page 1 of 1  sorted by
 
Quick Reply

Please log in to post quick replies.



Create your own FREE Forum
Report Abuse
Powered by ActiveBoard